DELTA 1 DEB, 7164

Orbit data source: Space-Track

DELTA 1 DEB, 7164 is space debris in SSO originally from a launch on Tue, 06 Nov 1973 UTC launched from the Air Force Western Test Range (AFWTR). Debris objects in space refer to the collection of defunct objects orbiting the Earth. Examples of debris include non-operational satellites, rocket bodies, and fragments generated from explosions, collisions, or faulty payload assembly.

Loading next visibility...
Identifier
7164, 1973-086EC
Orbit
SSO
Country
Flag of USUS
Related business
Manufacturer
Unknown
Mission
Spacecraft
Bus & Motor
Unknown
Mass
Unknown
Launch date (UTC)
1973-11-06 (53 years ago)
Launch vehicle
Unknown
Launch site
Air Force Western Test Range (AFWTR)
Object type
Payload
Rocket body
Debris
Shape & HBR
Unknown shape, 0.3 m
Radar Cross Section
Medium (>0.1 m² and <1 m²)

Expand to show TLE details & history
Last TLE update: 9 hours ago

TLE from 9 hours ago
0 DELTA 1 DEB
1 07164U 73086EC  26265.06492249  .00000313  00000-0  16211-2 0  9999
2 07164 101.0610 292.9703 0086257  28.9182  28.6175 12.76442062451114
Epoch: 2026-09-22T01:33Z
TLE epoch observation values (Epoch: 2026-09-22T01:33:29.303Z)
Latitude
56.44332°
Longitude
-108.38936°
Altitude
1,306.634 km
Speed
7.236 km/s
True Right ascension
18h 23m 40s
True Declination
56° 17' 46"
Sunlit
Object was in daylight at epoch
Visualization orbit readout
Latitude
Unknown
Longitude
Unknown
Altitude
Unknown
Speed
Unknown
Apparent Right ascension
Unknown
Apparent Declination
Unknown
Sunlit
N/A
Visualization observer readout
Local Sidereal Time
04:01:34
Azimuth
Unknown
Elevation
Unknown
Doppler factor
Unknown
Orbital elements
Apogee altitude
1,419.97 km
Perigee altitude
1,286.592 km
Semi-major axis
7,731.418 km
Eccentricity
0.00863
Inclination
101.061°
RAAN
292.9703°
Arg. of periapsis
28.9182°
True anomaly
29.09544°
Mean anomaly
28.6175°
Eccentric anomaly
28.85601°
Mean motion
3.19267 °/min
Orbital period
112.76 mins
BSTAR
0.0016211
Loading maneuver chart data...
Computing Atmospheric mass density...
Loading historical data...
Loading historical data...
Loading historical data...
Loading historical data...
Loading historical data...
Loading historical data...
Loading historical data...

Documentation

Showing up to 5 results
|